When you browse on this site, cookies collect data to enhance your experience and personalize the content and advertising you see.
Visit our Privacy Policy to learn more. By continuing to use the site, you agree to this use of cookies and data.
  • In Lithuania
  • List of Countries
  • For 7 days
  • Water Temperature
  • Weather Map
  • Weather Widgets
  • user-avatar
    Login

    Hourly Weather Lvovskiy

    Today, 19 September, Thursday

    Time Temperature Precipitation Wind Pressure Humidity
    00:00 +6°C° 0 mm 4 mps 733 mmHg 88%
    01:00 +5°C° 0 mm 4 mps 733 mmHg 90%
    02:00 +5°C° 0 mm 4 mps 734 mmHg 92%
    03:00 +4°C° 0 mm 4 mps 735 mmHg 94%
    04:00 +4°C° 0 mm 4 mps 736 mmHg 94%
    05:00 +4°C° 0 mm 4 mps 736 mmHg 94%
    06:00 +4°C° 0 mm 4 mps 737 mmHg 94%
    07:00 +5°C° 0 mm 5 mps 738 mmHg 90%
    08:00 +6°C° 0 mm 5 mps 739 mmHg 86%
    09:00 +7°C° 0 mm 5 mps 739 mmHg 83%
    10:00 +8°C° 0.1 mm 5 mps 740 mmHg 80%
    11:00 +9°C° 0.1 mm 5 mps 740 mmHg 76%
    12:00 +9°C° 0.1 mm 5 mps 741 mmHg 73%
    13:00 +9°C° 0.1 mm 5 mps 741 mmHg 74%
    14:00 +9°C° 0.1 mm 5 mps 742 mmHg 74%
    15:00 +10°C° 0.1 mm 4 mps 742 mmHg 75%
    16:00 +8°C° 0 mm 4 mps 742 mmHg 77%
    17:00 +9°C° 0 mm 3 mps 742 mmHg 78%
    18:00 +8°C° 0 mm 2 mps 743 mmHg 80%
    19:00 +7°C° 0 mm 2 mps 743 mmHg 83%
    20:00 +6°C° 0 mm 2 mps 743 mmHg 86%
    21:00 +6°C° 0 mm 2 mps 744 mmHg 88%
    22:00 +5°C° 0 mm 2 mps 744 mmHg 89%
    23:00 +5°C° 0 mm 2 mps 744 mmHg 90%

    Tomorrow, 20 September, Friday

    Time Temperature Precipitation Wind Pressure Humidity
    00:00 +4°C° 0 mm 2 mps 744 mmHg 91%
    01:00 +4°C° 0 mm 2 mps 744 mmHg 92%
    02:00 +4°C° 0 mm 2 mps 744 mmHg 92%
    03:00 +4°C° 0 mm 2 mps 744 mmHg 92%
    04:00 +2°C° 0 mm 3 mps 744 mmHg 93%
    05:00 +2°C° 0 mm 3 mps 744 mmHg 93%
    06:00 +2°C° 0 mm 3 mps 744 mmHg 94%
    07:00 +3°C° 0 mm 3 mps 744 mmHg 88%
    08:00 +5°C° 0 mm 2 mps 744 mmHg 83%
    09:00 +7°C° 0 mm 2 mps 744 mmHg 78%
    10:00 +8°C° 0 mm 2 mps 744 mmHg 72%
    11:00 +8°C° 0 mm 2 mps 744 mmHg 65%
    12:00 +9°C° 0 mm 2 mps 744 mmHg 59%
    13:00 +10°C° 0 mm 2 mps 744 mmHg 57%
    14:00 +10°C° 0 mm 2 mps 744 mmHg 56%
    15:00 +10°C° 0 mm 2 mps 744 mmHg 54%
    16:00 +11°C° 0 mm 1 mps 744 mmHg 57%
    17:00 +10°C° 0 mm 1 mps 744 mmHg 61%
    18:00 +10°C° 0 mm 1 mps 743 mmHg 64%
    19:00 +10°C° 0 mm 1 mps 744 mmHg 67%
    20:00 +9°C° 0 mm 1 mps 744 mmHg 70%
    21:00 +8°C° 0 mm 2 mps 744 mmHg 73%
    22:00 +8°C° 0.5 mm 1 mps 744 mmHg 76%
    23:00 +8°C° 0.5 mm 1 mps 744 mmHg 79%

    Day after tomorrow, 21 September, Saturday

    Time Temperature Precipitation Wind Pressure Humidity
    00:00 +8°C° 0.5 mm 1 mps 744 mmHg 82%
    01:00 +8°C° 1.2 mm 1 mps 744 mmHg 85%
    02:00 +6°C° 1.2 mm 2 mps 744 mmHg 88%
    03:00 +6°C° 1.2 mm 2 mps 743 mmHg 91%
    04:00 +5°C° 0.2 mm 2 mps 744 mmHg 91%
    05:00 +5°C° 0.2 mm 2 mps 744 mmHg 92%
    06:00 +4°C° 0.2 mm 2 mps 744 mmHg 92%
    07:00 +4°C° 0 mm 3 mps 744 mmHg 89%
    08:00 +4°C° 0 mm 3 mps 744 mmHg 87%
    09:00 +5°C° 0 mm 4 mps 744 mmHg 84%
    10:00 +6°C° 0.1 mm 4 mps 744 mmHg 78%
    11:00 +7°C° 0.1 mm 4 mps 744 mmHg 73%
    12:00 +8°C° 0.1 mm 4 mps 744 mmHg 67%
    13:00 +8°C° 0.1 mm 4 mps 744 mmHg 63%
    14:00 +8°C° 0.1 mm 5 mps 744 mmHg 59%
    15:00 +9°C° 0.1 mm 5 mps 744 mmHg 55%
    16:00 +8°C° 0 mm 4 mps 743 mmHg 58%
    17:00 +7°C° 0 mm 4 mps 743 mmHg 61%
    18:00 +7°C° 0 mm 3 mps 743 mmHg 63%
    19:00 +5°C° 0 mm 3 mps 743 mmHg 66%
    20:00 +5°C° 0 mm 3 mps 743 mmHg 69%
    21:00 +4°C° 0 mm 3 mps 742 mmHg 72%
    22:00 +4°C° 0 mm 3 mps 742 mmHg 71%
    23:00 +4°C° 0 mm 4 mps 741 mmHg 70%

    22 September, Sunday

    Time Temperature Precipitation Wind Pressure Humidity
    00:00 +5°C° 0 mm 4 mps 740 mmHg 70%
    01:00 +5°C° 0.2 mm 5 mps 739 mmHg 75%
    02:00 +4°C° 0.2 mm 6 mps 738 mmHg 81%
    03:00 +4°C° 0.2 mm 7 mps 736 mmHg 87%
    04:00 +5°C° 0.9 mm 7 mps 735 mmHg 89%
    05:00 +5°C° 0.9 mm 7 mps 733 mmHg 91%
    06:00 +6°C° 0.9 mm 8 mps 732 mmHg 94%
    07:00 +7°C° 0.8 mm 9 mps 731 mmHg 91%
    08:00 +7°C° 0.8 mm 10 mps 730 mmHg 88%
    09:00 +8°C° 0.8 mm 11 mps 729 mmHg 85%
    10:00 +7°C° 0.3 mm 12 mps 729 mmHg 81%
    11:00 +5°C° 0.3 mm 13 mps 729 mmHg 77%
    12:00 +4°C° 0.3 mm 14 mps 729 mmHg 72%
    13:00 +3°C° 0.3 mm 14 mps 730 mmHg 76%
    14:00 +2°C° 0.3 mm 15 mps 731 mmHg 79%
    15:00 +1°C° 0.3 mm 15 mps 732 mmHg 83%
    16:00 +1°C° 0.2 mm 14 mps 733 mmHg 84%
    17:00 0°C° 0.2 mm 14 mps 734 mmHg 85%
    18:00 0°C° 0.2 mm 13 mps 736 mmHg 85%
    19:00 0°C° 0 mm 12 mps 737 mmHg 84%
    20:00 +1°C° 0 mm 11 mps 739 mmHg 83%
    21:00 +1°C° 0 mm 10 mps 740 mmHg 82%
    22:00 0°C° 0 mm 9 mps 741 mmHg 82%
    23:00 0°C° 0 mm 8 mps 742 mmHg 82%

    23 September, Monday

    Time Temperature Precipitation Wind Pressure Humidity
    00:00 0°C° 0 mm 7 mps 742 mmHg 82%
    01:00 0°C° 0 mm 7 mps 743 mmHg 84%
    02:00 -1°C° 0 mm 7 mps 744 mmHg 86%
    03:00 -1°C° 0 mm 6 mps 744 mmHg 87%
    04:00 -2°C° 0 mm 6 mps 745 mmHg 88%
    05:00 -2°C° 0 mm 6 mps 745 mmHg 89%
    06:00 -1°C° 0 mm 5 mps 746 mmHg 91%
    07:00 0°C° 0 mm 5 mps 746 mmHg 86%
    08:00 -1°C° 0 mm 6 mps 747 mmHg 81%
    09:00 +1°C° 0 mm 6 mps 747 mmHg 76%
    10:00 +3°C° 0 mm 6 mps 747 mmHg 70%
    11:00 +4°C° 0 mm 6 mps 747 mmHg 64%
    12:00 +5°C° 0 mm 6 mps 748 mmHg 58%
    13:00 +6°C° 0 mm 5 mps 747 mmHg 58%
    14:00 +7°C° 0 mm 5 mps 747 mmHg 57%
    15:00 +7°C° 0 mm 5 mps 747 mmHg 56%
    16:00 +7°C° 0 mm 4 mps 747 mmHg 59%
    17:00 +6°C° 0 mm 4 mps 747 mmHg 62%
    18:00 +7°C° 0 mm 3 mps 747 mmHg 65%
    19:00 +5°C° 0 mm 3 mps 747 mmHg 67%
    20:00 +5°C° 0 mm 3 mps 747 mmHg 69%
    21:00 +4°C° 0 mm 3 mps 747 mmHg 71%
    22:00 +5°C° 0 mm 2 mps 747 mmHg 75%
    23:00 +5°C° 0 mm 2 mps 746 mmHg 78%

    24 September, Tuesday

    Time Temperature Precipitation Wind Pressure Humidity
    00:00 +5°C° 0 mm 1 mps 746 mmHg 82%
    01:00 +4°C° 0 mm 2 mps 746 mmHg 82%
    02:00 +4°C° 0 mm 2 mps 746 mmHg 83%
    03:00 +4°C° 0 mm 2 mps 745 mmHg 84%
    04:00 +3°C° 0 mm 3 mps 745 mmHg 82%
    05:00 +3°C° 0 mm 3 mps 744 mmHg 81%
    06:00 +3°C° 0 mm 4 mps 744 mmHg 80%
    07:00 +4°C° 0.1 mm 4 mps 743 mmHg 80%
    08:00 +4°C° 0.1 mm 4 mps 743 mmHg 81%
    09:00 +4°C° 0.1 mm 4 mps 742 mmHg 82%
    10:00 +4°C° 0.3 mm 4 mps 742 mmHg 85%
    11:00 +4°C° 0.3 mm 3 mps 742 mmHg 88%
    12:00 +4°C° 0.3 mm 3 mps 742 mmHg 91%
    13:00 +4°C° 0.2 mm 3 mps 741 mmHg 91%
    14:00 +4°C° 0.2 mm 3 mps 741 mmHg 92%
    15:00 +5°C° 0.2 mm 2 mps 740 mmHg 92%
    16:00 +5°C° 0.1 mm 2 mps 740 mmHg 93%
    17:00 +4°C° 0.1 mm 3 mps 740 mmHg 93%
    18:00 +5°C° 0.1 mm 3 mps 739 mmHg 94%
    19:00 +5°C° 0.1 mm 3 mps 739 mmHg 94%
    20:00 +4°C° 0.1 mm 3 mps 739 mmHg 95%
    21:00 +4°C° 0.1 mm 4 mps 739 mmHg 96%
    22:00 +4°C° 0.1 mm 4 mps 739 mmHg 96%
    23:00 +4°C° 0.1 mm 4 mps 738 mmHg 96%
    Show more